Location: B�?�?
(37.0388°N, 31.0289°E)
Time: 09:33:06
(UTC+00:00)

Daily predictions for brighter satellites

Satellite Brightness Start Highest point End
(mag) Time Altitude Azimuth Time Altitude Azimuth Time Altitude Azimuth
MOS 1 4.4 17:32:52 10° SSE 17:38:32 72° ENE 17:44:13 10° N
Cosmos 724 4.4 17:36:11 10° NNW 17:42:08 86° ENE 17:48:10 10° SSE
CZ-2C R/B 3.9 17:38:10 10° NNE 17:42:33 50° E 17:47:00 10° S
Cosmos 2056 Rocket 4.0 17:42:04 10° SSW 17:47:07 65° WNW 17:52:13 10° NNE
STARLINK-1088 3.7 17:44:28 10° NW 17:48:37 78° NE 17:52:42 10° SE
MONITOR-E 3.6 17:48:10 10° S 17:50:41 85° WSW 17:53:15 10° NNW
Meteor 1-19 Rocket 4.3 17:47:30 10° S 17:53:07 87° E 17:58:56 10° N
STARLINK-1115 3.6 17:49:26 10° NW 17:53:35 86° NE 17:57:29 11° SE
Cosmos 1356 3.4 17:50:29 10° N 17:53:57 89° E 17:57:22 10° S
Cosmos 1437 Rocket 4.3 17:53:34 11° SE 17:55:57 17° E 17:58:27 10° NE
Meteor 1-4 Rocket 2.4 17:53:35 10° S 17:57:01 88° W 18:00:29 10° N
Aureole 2 Rocket 4.0 17:55:56 12° SE 17:57:13 14° E 17:58:59 10° ENE
STARLINK-1076 3.6 17:54:24 10° NW 17:58:33 85° SW 18:02:15 13° SE
NOSS 2-2 (E) 4.2 17:56:07 10° SSE 17:58:56 22° ESE 18:01:50 10° ENE
Lacrosse 5 2.9 17:54:33 10° NNW 17:59:13 35° NE 18:03:43 11° ESE
BREEZE M DEB (TANK) 3.9 17:58:45 10° WNW 18:01:03 21° SW 18:02:52 10° S
ARGOS 3.8 17:56:30 10° S 18:01:45 57° W 18:07:04 10° NNW
COSMOS 2406 3.3 17:56:10 10° NNW 18:01:57 83° ENE 18:07:41 10° SSE
Cosmos 909 Rocket 4.3 17:55:00 10° NNW 18:02:28 82° WSW 18:08:48 10° SSE
Meteor 2-4 Rocket 3.6 17:57:14 10° S 18:02:31 62° E 18:07:47 10° NNE
USA 186 3.3 18:01:08 10° SSW 18:03:20 27° W 18:05:41 10° NW
STARLINK-1092 3.7 17:59:24 10° NW 18:03:33 77° SW 18:07:03 14° SE
CZ-2C R/B 2.7 17:58:56 10° NNE 18:04:35 83° ESE 18:10:11 10° S
Tsikada Rocket 4.4 17:59:44 10° SSW 18:05:53 68° W 18:12:02 10° N
ISS -2.1 18:05:33 10° NNW 18:08:27 26° NNE 18:11:10 11° E
STARLINK-1080 3.8 18:04:23 10° NW 18:08:30 69° SW 18:11:50 15° SE
Cosmos 1975 2.8 18:05:03 10° N 18:09:06 87° W 18:13:06 10° S
Cosmos 2297 4.3 18:04:05 10° SSE 18:09:08 34° ESE 18:14:13 10° NE
Cosmos 1943 Rocket 3.8 18:08:57 13° ESE 18:10:15 14° E 18:12:54 10° ENE
STARLINK-1090 3.9 18:09:22 10° NW 18:13:28 62° SW 18:16:37 16° SSE
Cosmos 1833 Rocket 2.8 18:08:12 10° NNW 18:13:46 65° ENE 18:18:26 15° SSE
Cosmos 407 Rocket 4.4 18:08:46 10° NNW 18:13:55 50° WSW 18:19:03 10° S
BREEZE-M DEB (TANK) 2.8 18:12:12 10° WNW 18:14:25 47° SW 18:16:00 19° SSE
Cosmos 1420 Rocket 4.4 18:12:04 10° SSW 18:17:14 69° WNW 18:22:25 10° NNE
Hubble Space Telescope 3.1 18:16:22 10° SW 18:17:23 11° SSW 18:18:23 10° S
Cosmos 1452 Rocket 3.5 18:12:09 10° SSW 18:17:25 80° ESE 18:22:43 10° NNE
STARLINK-1089 4.0 18:14:24 10° NW 18:18:26 55° SW 18:21:25 17° SSE
Cosmos 332 Rocket 3.8 18:14:35 10° S 18:19:26 64° ESE 18:24:17 10° NNE
Cosmos 2082 Rocket 2.8 18:14:47 10° N 18:20:14 44° ENE 18:24:10 18° SE
Milstar 3 Cent rocket 4.5 18:15:21 10° SSW 18:22:04 27° SE 18:33:41 10° E
STARLINK-1107 4.2 18:19:23 10° WNW 18:23:23 49° SW 18:26:11 18° SSE
NOSS 2-2 (C) 3.7 18:20:11 10° S 18:23:27 33° ESE 18:26:45 10° NE
Cosmos 2369 Rocket 3.9 18:25:40 13° E 18:25:53 13° E 18:28:28 10° ENE
ATLAS 2AS CENTAUR R/B 4.4 18:25:54 14° ESE 18:26:44 14° ESE 18:30:34 10° ENE
Cosmos 1461 2.8 18:24:15 10° SSW 18:28:17 90° SSW 18:32:34 10° NNE
STARLINK-1066 4.4 18:24:24 10° WNW 18:28:20 44° SW 18:30:57 19° SSE
Cosmos 1140 Rocket 4.3 18:23:23 10° NNW 18:28:24 48° WSW 18:33:24 10° S
Okean 3 3.7 18:25:55 10° SSW 18:30:12 72° W 18:34:31 10° N
ATLAS 3B CENTAUR R/B 4.1 18:13:51 10° WSW 18:30:23 48° S 18:36:44 17° ESE
Meteor 1-13 Rocket 4.2 18:30:01 10° S 18:35:36 81° E 18:41:20 10° N
Cosmos 1544 4.5 18:32:18 10° NNW 18:35:39 36° W 18:38:57 10° SSW
STARLINK-1096 4.4 18:31:42 10° NW 18:35:39 42° NE 18:38:00 21° E
Cosmos 2221 Rocket 4.0 18:32:38 10° SSW 18:37:06 66° W 18:41:38 10° N
SAR-Lupe-2 4.0 18:36:14 10° NNE 18:39:40 42° E 18:40:49 31° SE
ASTRO E2 3.3 18:36:13 10° WSW 18:39:51 35° S 18:40:51 30° SE
STARLINK-1079 4.3 18:36:38 10° NW 18:40:39 46° NE 18:42:47 24° E
ERS-1 Rocket 4.3 18:39:41 19° ESE 18:41:46 24° ENE 18:45:45 10° NNE
Cosmos 2142 Rocket 4.4 18:36:40 10° N 18:42:51 88° E 18:47:56 16° S
Cosmos 1066 Rocket 4.4 18:40:36 21° SSE 18:43:53 46° E 18:48:58 10° NNE
STARLINK-1116 4.1 18:41:35 10° NW 18:45:38 51° NE 18:47:34 27° ESE
Nadezhda 4 Rocket 4.3 18:43:57 22° SSE 18:47:38 46° E 18:53:25 10° NNE
Cosmos 2278 Rocket 4.3 18:44:06 10° WSW 18:48:59 29° WNW 18:53:53 10° N
SL-4 R/B 1.7 18:46:13 10° NW 18:49:06 48° WSW 18:49:44 38° SSW
USA 245 3.2 18:50:18 39° E 18:50:31 39° ENE 18:53:08 10° N
Resurs 01 Rocket 2.1 18:50:41 18° S 18:53:53 56° W 18:58:16 10° NNW
MetOp-B 4.1 18:50:41 25° SSE 18:53:55 80° ENE 18:59:17 10° N
STARLINK-1094 3.8 18:51:30 10° NW 18:55:37 62° NE 18:57:08 35° ESE
Cosmos 1741 Rocket 4.0 18:51:52 10° NNW 18:57:04 68° ENE 18:59:27 32° SE
Meteor 1-12 Rocket 4.4 18:52:30 10° NNW 18:58:08 71° W 19:02:18 19° S
Okean 1 Rocket 3.7 18:55:29 10° N 18:59:41 40° E 19:00:42 35° ESE
Okean 2 Rocket 3.7 18:55:54 10° NNW 19:00:12 53° W 19:03:03 20° SSW
STARLINK-1117 3.7 18:56:28 10° NW 19:00:36 68° NE 19:01:55 40° ESE
GPS 2-04 Rocket1 2.3 18:57:42 10° W 19:01:11 68° S 19:01:44 56° SE
Cosmos 2279 Rocket 4.0 18:54:57 10° N 19:01:12 80° W 19:05:36 20° S
Cosmos 1110 Rocket 3.9 18:59:57 14° SSW 19:04:27 82° ESE 19:09:38 10° NNE
STARLINK-1078 3.6 19:01:26 10° NW 19:05:34 76° NE 19:06:42 46° ESE
Spot 2 Rocket 3.4 19:03:52 32° SSE 19:06:14 84° ENE 19:11:18 10° NNW
Terra 3.2 19:05:29 22° E 19:06:31 24° ENE 19:10:19 10° NNE
SPOT 1/Viking Rocket 3.7 19:04:39 35° SE 19:06:42 60° ENE 19:11:46 10° N
Cosmos 1850 Rocket 4.0 19:01:20 10° NNW 19:06:43 88° ENE 19:09:06 34° SSE
BREEZE-M DEB (TANK) 2.6 19:08:16 56° SSE 19:08:29 57° SE 19:14:24 10° ENE
SL-4 R/B 2.4 19:04:48 10° SSW 19:09:19 53° SE 19:14:02 10° ENE
STARLINK-1108 3.5 19:06:25 10° NW 19:10:34 84° NE 19:11:29 53° SE
CARTOSAT-1 4.2 19:10:42 36° E 19:11:26 39° ENE 19:15:27 10° N
Cosmos 2151 Rocket 4.2 19:10:31 10° NNW 19:14:57 55° W 19:17:10 27° SSW
STARLINK-1071 3.5 19:11:23 10° NW 19:15:32 88° SW 19:16:16 59° SE
STARLINK-1110 3.5 19:15:10 10° NW 19:19:19 82° SW 19:19:54 64° SSE
Abrixas rocket 3.9 19:17:42 10° NNW 19:20:08 23° NNE 19:20:22 22° NNE
Cosmos 1331 Rocket 4.0 19:17:20 17° SSW 19:21:19 77° WNW 19:26:30 10° NNE
STARLINK-1124 3.5 19:21:21 10° NW 19:25:29 72° SW 19:25:50 66° S
STARLINK-1122 3.6 19:26:20 10° NW 19:30:26 64° SW 19:30:37 63° SSW
Cosmos 1302 Rocket 3.9 19:30:04 49° SSE 19:31:20 66° ESE 19:36:36 10° NNE
Cosmos 1092 Rocket 3.9 19:30:54 41° SSE 19:33:00 68° E 19:39:06 10° NNE
deb Kosmos-1763 4.0 19:29:26 10° NNW 19:32:49 75° WNW 19:32:49 75° WNW
H-2A ROCKET BODY 4.2 19:28:41 10° SW 19:35:03 44° SE 20:04:56 10° E
Cosmos 1378 3.1 19:35:06 75° W 19:35:08 75° W 19:38:51 10° N
Cosmos 1733 4.3 19:31:42 10° N 19:34:33 33° NE 19:34:33 33° NE
STARLINK-1126 3.8 19:31:23 10° NW 19:35:28 57° SW 19:35:28 57° SW
Meteor 1-15 Rocket 4.5 19:31:10 10° NNW 19:37:04 70° W 19:39:26 37° SSW
CENTAUR R/B 4.3 19:31:32 10° NNW 19:38:43 33° NE 19:43:59 18° E
STARLINK-1082 4.0 19:36:20 10° WNW 19:40:10 51° WSW 19:40:10 51° WSW
Lacrosse 5 2.8 19:37:33 10° WNW 19:42:08 35° WSW 19:42:55 33° SW
ISS -1.9 19:42:12 10° WNW 19:44:06 25° W 19:44:06 25° W
STARLINK-1100 4.3 19:41:20 10° WNW 19:44:56 44° WSW 19:44:56 44° WSW
Cosmos 1627 Rocket 4.5 19:45:25 49° SSE 19:47:06 69° E 19:53:26 10° NNE
Cosmos 2195 Rocket 4.4 19:46:13 47° S 19:48:10 78° E 19:54:27 10° N
NOSS 3-4 (A) 3.7 19:49:11 44° ESE 19:49:11 44° ESE 19:54:30 10° NE
NOSS 3-4 (C) 3.7 19:49:19 43° ESE 19:49:19 43° ESE 19:54:36 10° NE
STARLINK-1084 4.5 19:48:41 10° NW 19:52:37 41° NE 19:52:46 40° NE
Cosmos 1943 Rocket 2.4 19:50:22 28° SW 19:53:17 68° WNW 19:58:52 10° NNE
Cosmos 1428 Rocket 4.5 19:52:04 53° SSE 19:53:25 66° E 19:59:38 10° NNE
SL-27 R/B 4.2 19:53:49 10° N 19:55:55 26° NNE 19:55:55 26° NNE
STARLINK-1098 4.4 19:53:37 10° NW 19:57:33 44° NE 19:57:33 44° NE
Cosmos 1766 3.6 19:53:54 10° N 19:57:24 65° NNW 19:57:24 65° NNW
OAO 1 4.4 19:55:04 10° WSW 20:00:24 70° S 20:00:24 70° S
Cosmos 1900 4.3 19:56:41 10° NNW 20:01:45 73° ENE 20:01:59 71° E
STARLINK-1123 4.3 19:58:33 10° NW 20:02:19 48° NNE 20:02:19 48° NNE
Cosmos 2082 Rocket 3.9 19:59:35 10° NW 20:03:57 23° W 20:06:02 19° SW
SeaSat 1 3.6 20:01:46 10° NE 20:04:48 31° ENE 20:04:48 31° ENE
Cosmos 1975 Rocket 3.3 20:07:29 62° W 20:07:31 62° W 20:11:54 10° N
STARLINK-1097 4.3 20:03:32 10° NW 20:07:07 50° N 20:07:07 50° N
Cosmos 2369 Rocket 2.3 20:07:22 44° SW 20:09:11 72° WNW 20:14:51 10° NNE
Cosmos 292 Rocket 3.7 20:09:53 84° N 20:09:53 84° N 20:14:35 10° NNE
STARLINK-1099 4.3 20:08:29 10° NW 20:11:54 51° N 20:11:54 51° N
SPOT 5 3.6 20:14:18 45° SW 20:15:01 48° W 20:20:10 10° NNW
ATLAS 2AS CENTAUR R/B 2.9 20:13:11 39° SSW 20:16:34 80° ESE 20:24:35 10° NE
Cosmos 2026 Rocket 4.1 20:15:52 50° SSW 20:17:32 72° W 20:23:53 10° N
STARLINK-1104 4.4 20:13:26 10° NW 20:16:40 49° NNW 20:16:40 49° NNW
ERS-1 Rocket 4.0 20:19:40 34° WSW 20:20:20 35° W 20:24:56 10° NNW
ATLAS CENTAUR R/B 3.2 20:23:28 24° NE 20:23:28 24° NE 20:25:12 10° NE
Cosmos 1656 Rocket 3.6 20:23:31 72° E 20:23:31 72° E 20:28:49 10° NNE
Cosmos 1025 Rocket 4.1 20:26:06 38° NNE 20:26:06 38° NNE 20:28:54 10° NNE
NOSS 3-2 (A) 4.0 20:17:41 10° NNW 20:25:31 88° ENE 20:27:48 54° SE
Cosmos 1553 Rocket 3.9 20:20:26 10° N 20:26:39 65° E 20:27:04 63° ESE
Thor Agena Rocket 3.7 20:21:50 10° NNE 20:26:36 65° ENE 20:26:36 65° ENE
Cosmos 1655 Rocket 4.0 20:30:06 60° E 20:30:14 60° E 20:36:22 10° NNE
Cosmos 1953 4.3 20:33:02 10° NNE 20:35:00 23° NE 20:35:00 23° NE
USA 238 DEB 3.7 20:29:54 10° NW 20:37:12 80° WSW 20:38:25 65° S
USA 238 3.7 20:30:00 10° NW 20:37:19 81° WSW 20:38:32 65° S
Cosmos 968 Rocket 3.7 20:32:55 10° NNW 20:37:31 63° NNE 20:37:31 63° NNE
Cosmos 1470 4.3 20:34:14 10° N 20:36:30 34° N 20:36:30 34° N
BREEZE-M DEB (TANK) 4.0 20:31:21 10° SW 20:39:13 42° SW 20:39:13 42° SW
Cosmos 1455 Rocket 4.2 20:39:04 10° NNW 20:42:18 39° WNW 20:42:18 39° WNW
Terra 3.1 20:44:22 31° W 20:44:22 31° W 20:48:18 10° NW
SL-8 R/B 4.5 20:42:50 10° NW 20:46:17 47° WNW 20:46:17 47° WNW
Cosmos 2266 Rocket 4.0 20:49:10 61° E 20:49:10 61° E 20:54:51 10° NNE
SL-4 R/B 4.1 20:44:59 10° W 20:49:16 32° NNW 20:53:37 10° NE
ATLAS 3B CENTAUR R/B 3.9 20:44:15 10° W 20:50:57 30° SW 20:50:57 30° SW
Cosmos 1503 Rocket 4.3 20:52:34 10° NNW 20:57:15 66° NNE 20:57:15 66° NNE
Meteor 2-8 Rocket 4.3 20:53:54 10° N 21:00:04 88° ENE 21:00:04 88° ENE
COSMOS 2455 2.9 21:09:44 68° WNW 21:09:59 69° WNW 21:16:00 10° NNE
BREEZE-M R/B 4.0 21:04:57 10° SW 21:15:49 86° SE 21:20:37 10° NE
Cosmos 1354 Rocket 4.4 21:11:51 10° NNW 21:16:12 60° NNW 21:16:12 60° NNW
Cosmos 1833 4.5 21:14:26 10° NNW 21:19:13 61° WNW 21:19:13 61° WNW
ALOS 2 3.9 21:30:24 38° N 21:30:24 38° N 21:33:09 10° N
CENTAUR R/B 3.2 21:21:47 10° NW 21:30:05 69° WSW 21:31:08 63° SSW
Meteor 2-5 Rocket 4.2 21:31:45 53° NE 21:31:45 53° NE 21:36:17 10° NNE
ATLAS 3B R/B 2.9 21:26:14 10° NNW 21:33:02 65° NE 21:33:56 60° E
NOSS 3-2 (C) 4.3 21:27:26 10° NW 21:35:07 56° WSW 21:35:36 55° SW
Cosmos 1867 4.2 21:34:02 10° NW 21:38:06 50° NW 21:38:06 50° NW
Cosmos 2098 Rocket 4.2 21:39:41 76° SW 21:40:08 79° W 21:47:39 10° N
SeaSat 1 4.2 21:39:41 10° N 21:43:41 25° NW 21:44:34 24° WNW
RESURS DK-1 4.3 21:53:57 28° N 21:53:57 28° N 21:56:10 10° N
Cosmos 2315 Rocket 4.0 21:46:20 10° N 21:52:08 71° WNW 21:52:08 71° WNW
Nadezhda 2 Rocket 4.4 21:55:00 79° N 21:55:00 79° N 22:00:44 10° N
Cosmos 2227 Rocket 4.0 21:55:23 10° N 21:59:51 23° ENE 22:01:43 20° E
ATLAS CENTAUR R/B 4.0 21:59:36 15° WNW 22:00:12 15° NW 22:02:39 10° NNW
Meteor 2-21 Rocket 4.5 22:05:57 75° NE 22:05:57 75° NE 22:11:45 10° N
Meteor 2-14 Rocket 4.4 22:08:44 77° NNW 22:08:44 77° NNW 22:14:30 10° N
FALCON 9 R/B 2.9 22:19:35 61° ESE 22:19:35 61° ESE 22:31:44 10° E
Nadezhda 1 Rocket 4.3 22:16:30 10° N 22:22:35 54° E 22:22:56 53° E
Meteor 1-24 Rocket 4.4 22:33:05 44° NW 22:33:05 44° NW 22:37:36 10° N
CZ-4C R/B 2.7 22:36:20 48° ENE 22:36:20 48° ENE 22:40:34 10° NE
Cosmos 2369 4.3 22:43:44 48° E 22:43:44 48° E 22:48:34 10° NNE
Cosmos 1980 Rocket 3.5 22:45:27 28° E 22:45:27 28° E 22:49:51 10° NE
Resurs 1-4 Rocket 3.5 22:41:38 10° NE 22:46:05 28° E 22:46:05 28° E
Meteor 2-1 Rocket 4.4 22:41:47 10° N 22:47:12 62° ENE 22:47:12 62° ENE
SJ 16-02 2.5 22:43:50 10° N 22:47:11 40° NNE 22:47:11 40° NNE
Helios 1B rocket 4.1 22:47:45 10° N 22:50:09 29° NNW 22:50:09 29° NNW
USA 215 3.1 22:52:57 71° WSW 22:52:57 71° WSW 22:59:22 10° NW
Cosmos 1745 Rocket 4.0 22:55:32 65° W 22:55:32 65° W 23:01:37 10° N
CZ-2D R/B 3.1 22:55:06 10° NNE 22:59:51 36° E 22:59:51 36° E
Cosmos 2219 3.3 22:57:22 10° NNW 23:02:18 65° NW 23:02:18 65° NW
Cosmos 468 Rocket 4.3 23:05:31 60° NNW 23:05:31 60° NNW 23:10:02 10° NNE
Cosmos 2297 Rocket 2.1 23:01:40 10° NNW 23:07:00 79° NW 23:07:00 79° NW
Lacrosse 4 Rocket 3.0 23:07:15 10° N 23:11:02 30° ENE 23:11:40 28° ENE
Cosmos 1455 3.9 23:10:44 10° N 23:12:54 32° NNE 23:12:54 32° NNE
Cosmos 540 Rocket 3.7 23:14:56 58° E 23:14:56 58° E 23:19:42 10° NNE
Meteor 2-10 Rocket 3.5 23:09:45 10° N 23:14:39 75° NE 23:14:39 75° NE
Cosmos 1937 Rocket 4.0 23:11:42 10° N 23:16:53 56° ENE 23:17:40 51° ESE
Cosmos 2082 4.2 23:11:42 10° NNW 23:17:15 56° ENE 23:18:47 42° ESE
Cosmos 1898 Rocket 3.5 23:12:19 10° NNW 23:17:36 81° ENE 23:17:36 81° ENE
IRAS Rocket 4.1 23:18:20 76° W 23:18:20 76° W 23:23:46 10° NNW
SL-16 R/B 2.9 23:19:18 37° SE 23:21:32 58° ENE 23:27:34 10° N
Cosmos 2278 3.6 23:21:32 73° SE 23:21:43 74° ESE 23:27:22 10° NNE
Meteor 1-21 Rocket 4.3 23:22:26 61° W 23:22:27 61° W 23:28:07 10° N
ATLAS 3B R/B 4.3 23:18:04 10° WNW 23:21:09 20° W 23:21:09 20° W
Cosmos 2181 Rocket 4.3 23:17:48 10° N 23:24:12 64° E 23:26:08 45° SE
CZ-4C R/B 4.1 23:24:34 56° NE 23:24:34 56° NE 23:28:34 10° N
CZ-4B R/B 4.0 23:23:29 10° NNE 23:28:35 50° E 23:29:08 48° ESE
ATLAS CENTAUR R/B 2.5 23:29:37 10° NW 23:32:55 72° NE 23:41:00 10° SE
Cosmos-2242 3.4 23:28:54 10° N 23:32:30 60° NNE 23:32:30 60° NNE
Cosmos 1697 Rocket 2.9 23:32:47 54° W 23:33:13 56° WNW 23:38:48 10° NNE
Cosmos 1814 Rocket 3.9 23:33:35 80° SSE 23:33:49 83° ESE 23:39:10 10° NNE
NPP 3.7 23:28:59 10° NNE 23:34:22 69° ESE 23:34:57 63° SE
Cosmos 1570 Rocket 4.0 23:35:09 69° W 23:35:16 70° WNW 23:40:34 10° NNE
STARLINK-1283 4.5 23:40:41 44° ENE 23:40:41 44° ENE 23:43:28 10° NE
Cosmos 858 Rocket 4.3 23:36:07 10° NNW 23:41:26 85° WSW 23:41:44 79° SSW
Cosmos 990 Rocket 4.3 23:38:42 10° NNW 23:43:10 50° WNW 23:43:10 50° WNW
Cosmos 2227 Rocket 2.6 23:38:42 10° NW 23:43:30 45° W 23:43:30 45° W
Cosmos 1825 Rocket 4.2 23:44:53 45° NW 23:44:53 45° NW 23:48:22 10° N
Cosmos 1709 Rocket 4.3 23:44:11 45° W 23:44:50 47° W 23:50:45 10° N
Cosmos 2208 Rocket 4.0 23:47:08 63° W 23:47:29 65° WNW 23:52:47 10° NNE
Alouette 2 Rocket 4.2 23:47:00 10° NNW 23:50:43 44° NW 23:50:43 44° NW
SL-16 R/B 3.6 23:50:09 23° SE 23:52:11 29° ESE 23:57:00 10° NE
Cosmos 841 Rocket 3.7 23:53:16 51° W 23:53:42 53° WNW 23:58:49 10° N
UNK 3.6 23:54:33 76° W 23:54:33 76° W 23:59:06 10° NNW
